www.pogodaiklimat.ru

Погода и климат >> Архив погоды >> Россия >> Якутия >> Теплый Ключ


ПОГОДА в Теплом Ключе

  • Прогноз погоды в Теплом Ключе
  • Монитор погоды в Теплом Ключе

АРХИВ ПОГОДЫ в Теплом Ключе

Время (UTC), дата Ветер
(напр.,м/с)
 
Видим.   Явления Облачность Т
(С)
Тd
(С)
f
(%)
Тe
(С)
Тes
(С)
Комфортность P
(гПа)
Po
(гПа)
Тmin
(С)
Tmax
(С)
R
(мм)
R24
(мм)
S
(см)
12 11.08 В 1 н/о н/о +14.0 +11.4 84 +14 +14 1008.9 975.1
15 11.08 В 2 н/о н/о +9.7 +8.5 92 +8 +8 1008.9 974.5
18 11.08 ЮВ 1 н/о н/о +7.7 +6.6 93 +7 +7 1008.7 974.1
21 11.08 штиль 0 50 км 9/0 2000 м
[Ac As]
+9.0 +7.9 93 +8 +9 1007.7 973.3 +5.9
00 12.08 В 2 50 км 8/0 2000 м
[Ac As]
+18.0 +9.0 56 +19 +21 1006.2 973.0
03 12.08 В 3 50 км 6/0 2000 м
[Ac trans]
+21.0 +7.5 42 +23 +28 комфорт 1005.2 972.2
06 12.08 Ю 2 50 км 8/4 1000 м
[Cb calv Ac trans]
+20.7 +9.0 47 +23 +25 комфорт 1004.7 971.8
09 12.08 З 3 50 км 4/0 2000 м
[Ac trans]
+18.4 +10.0 58 +19 +19 1005.8 972.6 +23.3
12 12.08 З 2 н/о н/о +14.5 +10.9 79 +14 +14 1007.8 974.0
15 12.08 В 2 н/о н/о +8.8 +8.1 95 +7 +7 1008.5 974.0
18 12.08 СВ 1 н/о н/о +5.9 +5.3 96 +5 +5 1009.1 974.2
21 12.08 штиль 0 50 км ясно +6.9 +6.2 95 +6 +7 1009.6 974.9 +3.9
00 13.08 штиль 0 50 км 6/0
[Ac trans]
+15.5 +10.0 70 +15 +21 1008.5 974.9
03 13.08 СВ 1 50 км ясно +21.8 +9.6 46 +23 +35 комфорт 1007.4 974.5
06 13.08 СЗ 4 50 км 3/3 1000 м
[Cu med, cong]
+24.4 +8.1 35 +25 +28 комфорт 1006.4 973.8
09 13.08 З 3
{12}
20 км в посл. час ливневой дождь {гроза} 8/6 930 м
[Cb cap Ac As]
+16.7 +10.7 68 +16 +17 1008.3 974.8 +24.6 1
12 13.08 ЮВ 1 н/о н/о +12.6 +11.0 90 +13 +13 1010.0 975.9
15 13.08 В 1 н/о н/о +8.5 +7.9 96 +8 +8 1011.4 976.8
18 13.08 СВ 1 н/о н/о +5.4 +4.8 96 +4 +4 1012.4 977.4
21 13.08 В 1 50 км ясно +9.3 +8.7 96 +9 +10 1012.7 978.2 +3.9 0.0
00 14.08 штиль 0 50 км ясно +18.9 +10.2 57 +20 +28 1011.6 978.2
03 14.08 штиль 0 50 км 3/3 1000 м
[Cu med, cong]
+23.5 +9.3 40 +24 +33 комфорт 1009.9 977.1
06 14.08 С 1 50 км 4/4 1000 м
[Cu med, cong]
+25.8 +7.4 31 +26 +30 жарко 1008.6 976.1
09 14.08 штиль 0 50 км 4/0 2000 м
[Ac trans]
+25.4 +8.9 35 +26 +27 жарко 1008.6 976.1 +26.7
12 14.08 штиль 0 н/о н/о +14.1 +12.8 92 +14 +14 1010.5 976.6
15 14.08 В 1 н/о н/о +12.0 +10.5 91 +12 +12 1011.7 977.5
18 14.08 В 1 н/о н/о +11.9 +10.3 90 +12 +12 1012.7 978.5
21 14.08 В 1 50 км 6/0 2000 м
[Ac trans]
+11.9 +10.0 88 +12 +13 1013.7 979.5 +9.1
00 15.08 ЮВ 3 50 км ясно +24.0 +8.3 37 +25 +30 комфорт 1012.6 979.7
03 15.08 Ю 4 50 км 6/3 1000 м
[Sc diur, vesp Ci]
+26.5 +5.0 25 +26 +30 жарко 1011.5 979.0
06 15.08 Ю 2
{11}
50 км 8/3 1000 м
[Cu med, cong Ci]
+27.1 +2.8 21 +26 +29 жарко 1010.6 978.1
09 15.08 штиль 0 50 км 6/0
[Ci fib]
+24.3 +10.9 43 +26 +26 жарко 1011.5 978.7 +27.5
12 15.08 В 1 н/о н/о +13.6 +9.8 78 +14 +14 1014.0 980.0
15 15.08 В 2 н/о н/о +9.1 +6.3 83 +7 +7 1016.1 981.4
18 15.08 В 1 н/о н/о +6.0 +4.9 93 +5 +5 1017.3 982.2
21 15.08 В 1 50 км ясно +11.0 +5.6 69 +11 +12 1017.6 983.1 +4.6
00 16.08 штиль 0 50 км ясно +22.4 +7.2 37 +23 +31 комфорт 1016.4 983.3
03 16.08 Ю 3 50 км ясно +26.0 +3.4 23 +25 +32 комфорт 1015.5 982.8
06 16.08 З 5 50 км 6/0 2000 м
[Ac trans]
+22.3 +3.5 29 +22 +24 комфорт 1016.2 983.0
09 16.08 штиль 0 50 км в посл. час ливневой дождь 10/4 600 м
[Cb calv As trans]
+17.0 +10.7 66 +17 +17 1017.6 983.9 +27.0 0.0
12 16.08 В 1 н/о н/о +16.4 +8.0 58 +17 +17 1017.8 983.9
15 16.08 Ю 1 н/о н/о +13.5 +9.0 74 +14 +14 1018.5 984.3
18 16.08 СВ 1 н/о н/о +6.7 +6.0 95 +6 +6 1019.7 984.6
21 16.08 штиль 0 50 км 6/0 2000 м
[Ac trans]
+7.6 +6.7 94 +7 +7 1020.2 985.2 +5.5 0.0
00 17.08 ЮВ 1 н/о н/о +19.5 +9.6 53 +22 +22 комфорт 1017.9 984.4
03 17.08 СЗ 1 н/о н/о +24.9 +6.3 30 +25 +25 комфорт 1016.2 983.3
06 17.08 СЗ 2 н/о н/о +26.6 +5.7 26 +26 +26 жарко 1014.6 981.9
09 17.08 З 2 н/о н/о +24.9 +6.7 31 +25 +25 комфорт 1014.9 982.1 +27.2
12 17.08 штиль 0 н/о н/о +14.2 +10.9 81 +14 +14 1017.6 983.5
15 17.08 штиль 0 н/о н/о +9.8 +8.6 92 +9 +9 1019.3 984.6
18 17.08 штиль 0 н/о н/о +6.8 +6.0 95 +6 +6 1020.1 985.0
21 17.08 штиль 0 50 км 10/0 2000 м
[As trans]
+9.1 +7.0 87 +8 +9 1019.7 984.9 +6.3
00 18.08 В 1 н/о н/о +15.7 +10.4 71 +16 +16 1018.2 984.3
03 18.08 С 1 н/о н/о +22.5 +11.1 48 +25 +25 комфорт 1016.8 983.7
06 18.08 З 2 н/о н/о +23.2 +5.2 31 +23 +23 комфорт 1016.1 983.0

 

Местоположение метеостанции Теплый Ключ (Якутия, Россия): широта 62.78 долгота 136.80 высота над уровнем моря 289 м.

В архиве по умолчанию представлена погода в Теплом Ключе за последнюю неделю. Архивные данные за месяц целиком и за предыдущие месяцы, начиная с января 2011 года, Вы можете получить, выбрав интересующий диапазон дат из раскрывающегося списка и нажав кнопку "Ввод!".


*Определитесь, кто Вы:
робот инопланетянин человек

Внимание! Время в таблицах - всемирное. Для получения местного времени необходимо прибавить поправку, которая равна 9 ч.

Смотрите также архив погоды в соседних городах и на ближайших метеорологических станциях:

Погода в Охотском Перевозе (Якутия, Россия) (121 км)
Погода в Крест-Хальджае (Якутия, Россия) (122 км)
Погода в Томпо (Якутия, Россия) (139 км)
Погода в Восточной (Якутия, Россия) (150 км)
Погода в Ытык-Кюёле (Якутия, Россия) (175 км)
Погода в Чурапче (Якутия, Россия) (232 км)
Погода в Верхоянском Перевозе (Якутия, Россия) (249 км)
Погода в Агаякане (Якутия, Россия) (254 км)
Погода в Иэме (Якутия, Россия) (284 км)
Погода в Юртах (Якутия, Россия) (286 км)

Пояснения к столбцам:

Ветер - указаны скорость ветра в м/с - средняя за 10 мин, порывы в срок и между сроками (в фигурных скобках) и направление, откуда дует ветер: С - северный, СВ - северо-восточный, В - восточный, ЮВ - юго-восточный, Ю - южный, ЮЗ - юго-западный, З - западный, СЗ - северо-западный.
Видимость - горизонтальная дальность видимости в метрах или километрах. При видимости от 1 до 10 км при отсутствии осадков обычно наблюдается дымка, при ухудшении видимости до 1 км и менее - туман. В сухую погоду видимость может ухудшаться дымом, пылью или мглою.
Явления - указаны атмосферные явления, наблюдавшиеся в срок или в последний час перед сроком; фигурными скобками обозначены явления, наблюдавшиеся между сроками (за 1-3 часа до срока); квадратными скобками обозначены град или гололедные отложения с указанием их диаметра в мм.
Облачность - указаны через наклонную черту общая и нижняя облачность в баллах и высота нижней границы облаков в метрах; квадратными скобками обозначены формы облаков: Ci - перистые, Cs - перисто-слоистые, Cc - перисто-кучевые, Ac - высококучевые, As - высокослоистые, Sc - слоисто-кучевые, Ns - слоисто-дождевые, Cu - кучевые, Cb - кучево-дождевые. Подробнее классификацию облаков см. в Атласе облаков (PDF).
T - Температура воздуха - температура, измеренная на высоте 2 м над землей.
Td - Температура точки росы - температура, при понижении до которой содержащийся в воздухе водяной пар достигнет насыщения.
f - Относительная влажность воздуха - влажноcть воздуха, измеренная на высоте 2 м над землей.
Te - Эффективная температура - температура, которую ощущает одетый по сезону человек в тени. Характеристика душности погоды. При расчете учитывается влияние влажности воздуха и скорости ветра на теплоощущения человека.
Tes - Эффективная температура на солнце - температура, которую ощущает человек, с поправкой на солнечный нагрев. Характеристика знойности погоды. Зависит от высоты солнца над горизонтом, облачности и скорости ветра. Ночью, в пасмурную погоду, а также при ветре 12 м/с и более поправка равна нулю.
P - Атмосферное давление - приведенное к уровню моря атмосферное давление.
Po - Атмосферное давление - измеренное на уровне метеостанции атмосферное давление.
Tmin - Минимальная температура - минимум температуры воздуха на высоте 2 м над землей.
Tmax - Максимальная температура - максимум температуры воздуха на высоте 2 м над землей.
R - Количество осадков - Количество выпавших осадков за период времени, мм. При наведении курсора мыши на число - период времени, за который выпало указанное количество осадков.
R24 - Количество осадков - Количество выпавших осадков за 24 часа, мм.
S - Снежный покров - Высота снежного покрова, см. При наведении курсора мыши на число - состояние снежного покрова и степень покрытия местности в баллах.